Regional Weather Roundup
Issued by NWS

Home | Current Version | Previous Version | Text Only | Print | Product List | Glossary On
Versions: 1 2 3 4 5 6 7 8 9 10 11 12 13 14 15 16 17 18 19 20 21 22 23 24 25 26 27 28 29 30 31 32 33 34 35 36 37 38 39 40 41 42 43 44 45 46 47 48 49 50
000
ASUS43 KMKX 051100
RWRWI

WISCONSIN REGIONAL WEATHER ROUNDUP
NATIONAL WEATHER SERVICE MILWAUKEE/SULLIVAN WI
600 AM CDT SAT SEP 05 2015

NOTE: "FAIR" INDICATES FEW OR NO CLOUDS BELOW 12,000 FEET WITH NO
SIGNIFICANT WEATHER AND/OR OBSTRUCTIONS TO VISIBILITY.

WIZ001-002-006>008-014>016-023>028-051200-
NORTHWEST WISCONSIN

CITY           SKY/WX    TMP DP  RH WIND       PRES   REMARKS
SUPERIOR ARPT  CLOUDY    60  59  96 CALM      29.99F
ASHLAND        PTCLDY    64  64 100 CALM      30.03R
HAYWARD        CLEAR     68  65  90 CALM      30.03R
SIREN          CLEAR     70  68  94 SE5       29.98S
CUMBERLAND     MOCLDY    64  64 100 SE5       30.02R FOG
RICE LAKE      PTCLDY    67  64  90 SE5       30.03R
CHETEK         PTCLDY    67  66  96 MISG      30.02R
LADYSMITH      CLEAR     66  64  93 SE3       30.05S FOG
EAU CLAIRE     NOT AVBL
MENOMONIE      PTCLDY    70  69  97 CALM      30.00S FOG
NEW RICHMOND   PTCLDY    72  71  95 SE6       29.99R
OSCEOLA        PTCLDY    73  73 100 SE7       30.00R
$$

WIZ003>005-009-010-017-018-051200-
NORTH CENTRAL WISCONSIN

CITY           SKY/WX    TMP DP  RH WIND       PRES   REMARKS
MANITOWISH WTR CLOUDY    65  65 100 S3        30.08S
ARBOR VITAE    CLOUDY    66  64  96 S3        30.08R FOG
WOODRUFF       CLOUDY    66  64  96 S3        30.08R FOG
RHINELANDER    CLOUDY    66  64  93 CALM      30.09S FOG
EAGLE RIVER    CLOUDY    64  64 100 CALM      30.09R FOG
LAND O LAKES   CLOUDY    65  64  96 CALM      30.10R
PHILLIPS       MOCLDY    66  65  99 SE3       30.06S FOG
TOMAHAWK       CLOUDY    65  64  96 CALM      30.08R FOG
MEDFORD        CLOUDY    65  65 100 SE5       30.06F FOG
MERRILL        CLOUDY    66  66 100 CALM      30.08S FOG
$$

WIZ029-030-035-036-043>047-051200-
CENTRAL WISCONSIN

CITY           SKY/WX    TMP DP  RH WIND       PRES   REMARKS
WAUSAU         CLOUDY    67  65  93 SE3       30.06S FOG
MOSINEE        CLOUDY    64  64 100 CALM      30.08F FOG
MARSHFIELD     CLOUDY    68  64  87 SE6       30.06S FOG
STEVENS POINT  MOCLDY    64  63  99 CALM      30.07F FOG
WAUPACA        MOCLDY    67  67  99 CALM      30.07F FOG
WAUTOMA        MOCLDY    64  64 100 CALM      30.07S FOG
WISC RAPIDS    CLOUDY    66  63  90 CALM      30.07S FOG
CAMP DOUGLAS   CLOUDY    68  68 100 SE3       30.04F FOG
$$

WIZ011>013-019>022-031-037>040-048>050-051200-
NORTHEAST WISCONSIN

CITY           SKY/WX    TMP DP  RH WIND       PRES   REMARKS
ANTIGO         CLOUDY    64  64 100 CALM      30.09S FOG
SHAWANO        NOT AVBL
OCONTO         CLOUDY    58  58 100 CALM      30.07F
STURGEON BAY   CLOUDY    66  63  88 CALM      30.10S VSB<1/4
GREEN BAY      FOG       62  62 100 CALM      30.07F VSB 1/4
MANITOWOC      FOG       63  63 100 MISG      30.08F VSB 1/2
APPLETON       CLOUDY    66  66 100 VRB3      30.06S FOG
CLINTONVILLE   CLOUDY    63  63 100 CALM      30.07S FOG
OSHKOSH        MOCLDY    65  63  93 CALM      30.06F FOG
$$

WIZ032>034-041-042-053>061-051200-
SOUTHWEST WISCONSIN

CITY           SKY/WX    TMP DP  RH WIND       PRES   REMARKS
LA CROSSE      LGT RAIN  73  69  87 S7        30.00S
SPARTA         CLOUDY    69  67  93 CALM      30.03S
VIROQUA        CLOUDY    72  71  99 S8        30.05S
BOSCOBEL       CLOUDY    73  71  93 CALM      30.04S FOG
PRAIRIE DU CHI CLOUDY    73  70  91 CALM      30.03R
PLATTEVILLE    CLOUDY    72  71  98 E5        30.05S
$$

WIZ056-057-062-063-064-067-068-051200-
SOUTH CENTRAL WISCONSIN

CITY           SKY/WX    TMP DP  RH WIND       PRES   REMARKS
REEDSBURG      PTCLDY    67  67  99 CALM      30.06S FOG
BARABOO/DELLS  PTCLDY    65  63  93 CALM      30.06S FOG
LONE ROCK      NOT AVBL
MINERAL POINT  LGT RAIN  72  70  94 CALM      30.08S
MADISON        MOCLDY    66  64  93 CALM      30.07R
MIDDLETON      CLEAR     66  66  98 CALM      30.08R
WATERTOWN      CLOUDY    65  65 100 CALM      30.07R FOG
MONROE         MOCLDY    66  64  94 CALM      30.07R FOG
JANESVILLE     MOCLDY    68  66  94 CALM      30.06R
$$

WIZ051-052-058>065-066-070>072-051200-
SOUTHEAST WISCONSIN

CITY           SKY/WX    TMP DP  RH WIND       PRES   REMARKS
MILWAUKEE      TSTM      65  64  97 E3        30.07S VSB 3/4
WAUKESHA       CLOUDY    64  64 100 E5        30.09S
MILWAUKEE/TIMM LGT RAIN  64  61  88 E3        30.08S
RACINE         CLOUDY    68  66  93 CALM      30.09S FOG
BURLINGTON     MOCLDY    63  63  99 CALM      30.07F FOG
KENOSHA        FOG       65  64  97 E3        30.07F VSB 3/4
FOND DU LAC    PTCLDY    65  64  97 CALM      30.06F
SHEBOYGAN      FOG       64  64 100 CALM      30.07S VSB 1/4
WEST BEND      FOG       63  63 100 CALM      30.08S VSB 1/2
JUNEAU           N/A     64  63  97 CALM      30.08S FOG
$$

LSZ147-162-051200-
LAKE SUPERIOR

STATION/POSITION TIME  TEMP    WIND        PRES    WAVE
                       AIR SEA DIR/SP/G            HT/PER
                 (UTC) (F)     (DEG/KT/KT) (MB)    (FT/S)
W MID LAKE BUOY  0950   61 57  280/  6/ 10 1016.9R   1/ 3
DEVILS ISLAND    1000   63     100/  4/  6 1016.5R
PORT WING        1040   62     190/  2/  3 1016.3F
SAXON HARBOR     1000   72     190/  2/  8 1015.2R
$$

LMZ867-665-643>646-051200-
LAKE MICHIGAN

STATION/POSITION TIME  TEMP    WIND        PRES    WAVE
                       AIR SEA DIR/SP/G            HT/PER
                 (UTC) (F)     (DEG/KT/KT) (MB)    (FT/S)
CHAMBERS ISLAND  1000   65      CALM  /  1 1018.3R
S GREEN BAY BUOY 1000   66 67   40/  2/  2 1019.8R
N MID LAKE BUOY  0950   68 67  190/  6/  8 1017.5R   0
NORTHPORT PIER   1000   67     290/  1/  2 1017.9S
SISTER BAY       1011   66        CALM       N/A
ALGOMA LAKESHORE 1014             CALM       N/A
KEWAUNEE LAKESHO 1000   62        CALM     1017.6R
SHEBOYGAN LAKESH 1000   61      90/  2/  3 1018.5F
PORT WASHINGTON  1040   60      CALM  /  1 1019.3R
ATWATER BUOY     1000   59 58  290/  2/  4 1019.9R
MILWAUKEE LAKESH 1010   61      30/  4/  5   N/A
S MID LAKE BUOY  0950   69 71   90/  4/  4 1017.9R   0
KENOSHA   LAKESH 1000   64        CALM     1017.9S
$$

TC  - TEMPERATURE IN CELSIUS
VSB - VISIBILITY IN STATUTE MILES
WCI - WIND CHILL INDEX
HX  - HEAT INDEX




USA.gov is the U.S. government's official web portal to all federal, state and local government web resources and services.